Torna al catalogo

OPS 5721 DEB

AttivoSSO
NORAD 9420·DEBRIS·🇺🇸 United States

Lanciato Sep 11, 1976 da Vandenberg Space Force Base

Loading…

Prossimi Passaggi (prossime 24 ore)

TLE

ObsoletoSource: Space-Track

Epoca: Jun 10, 1977, 23:39 UTC

1 09420U 76091  C 77161.98577327  .00000180 +00000-0 +87146-4 0  9997
2 09420 098.7028 072.5618 0021526 119.9111 240.4776 14.18392194038642

Traccia OPS 5721 DEB in tempo reale con AllMySat

Download on the App Store